Location: Home
(42.5358°N, 72.7383°W)
Time: 13:56:52
(UTC-05:00)

S-56A Canister/Altair - Visible Passes

Search period start: 30 November 2021 00:00
Search period end: 10 December 2021 00:00
Orbit: 633 x 2500 km, 38.9° (Epoch: 30 November)

Date Brightness Start Highest point End Pass type
(mag) Time Alt. Az. Time Alt. Az. Time Alt. Az.
30 Nov 7.9 04:28:32 46° SSE 04:28:32 46° SSE 04:32:12 10° ESE visible
30 Nov 9.1 06:27:41 10° WSW 06:30:46 18° SSW 06:33:47 10° SSE visible
01 Dec 9.0 03:57:43 28° SE 03:57:43 28° SE 03:59:53 10° ESE visible
01 Dec 8.8 05:55:09 11° WSW 05:58:21 21° SSW 06:01:43 10° SSE visible
02 Dec 10.0 03:26:54 14° ESE 03:26:54 14° ESE 03:27:35 10° ESE visible
02 Dec 8.6 05:24:20 21° WSW 05:25:56 25° SSW 05:29:36 10° SSE visible
03 Dec 8.4 04:53:32 29° SSW 04:53:32 29° SSW 04:57:28 10° SE visible
04 Dec 8.8 04:22:46 27° SSE 04:22:46 27° SSE 04:25:19 10° SE visible
05 Dec 9.6 03:52:00 17° SE 03:52:00 17° SE 03:53:09 10° SE visible
05 Dec 11.4 20:54:17 10° SSW 20:54:20 10° SSW 20:54:20 10° SSW visible
06 Dec 9.4 05:18:43 13° SW 05:18:45 13° SW 05:20:47 10° SSW visible
06 Dec 11.2 20:21:23 10° S 20:23:42 14° S 20:23:42 14° S visible
07 Dec 9.5 04:48:00 14° SSW 04:48:00 14° SSW 04:49:21 10° S visible
07 Dec 11.0 19:48:35 10° S 19:53:06 17° SSE 19:53:06 17° SSE visible
07 Dec 11.5 21:50:31 10° SW 21:50:33 10° SW 21:50:33 10° SW visible
08 Dec 9.9 04:17:19 11° S 04:17:19 11° S 04:17:38 10° S visible
08 Dec 10.9 19:15:56 10° S 19:22:30 18° SSE 19:22:30 18° SSE visible
08 Dec 11.2 21:17:06 10° SW 21:19:57 18° SW 21:19:57 18° SW visible
09 Dec 10.9 18:43:30 10° S 18:51:16 17° SE 18:51:54 17° SE visible
09 Dec 10.8 20:43:44 10° SW 20:49:21 25° SSW 20:49:21 25° SSW visible
